Tappahannock, VA

9:19 PM EDT on August 20, 2017 (GMT -0400)
Tappahannock

Weather History for KXSA - March, 2013

Change the Weather History Date:

Friday, March 29, 2013

  Actual Average (KOFP) Record (KOFP)
Temperature  
Mean Temperature 46 °F -  
Max Temperature 56 °F 67 °F 89 °F (1985)
Min Temperature 36 °F 40 °F 19 °F (1966)
Degree Days  
Heating Degree Days 19    
Moisture  
Dew Point 28 °F    
Average Humidity 53    
Maximum Humidity 81    
Minimum Humidity 30    
Precipitation  
Precipitation 0.00 in - - ()
Sea Level Pressure  
Sea Level Pressure 30.22 in    
Wind  
Wind Speed 4 mph (WNW)    
Max Wind Speed 12 mph    
Max Gust Speed 18 mph    
Visibility 10 miles    
Events      
Averages and records for this station are not official NWS values.
T = Trace of Precipitation, MM = Missing Value Source: NWS Daily Summary

Daily Weather History Graph

Daily Weather History Graph

Search for Another Location

Airport or City:

Trip Planner

Search our weather history database for the weather conditions in past years. The results will help you decide how hot, cold, wet, or windy it might be!

Date:

Astronomy

Mar. 29, 2013 Rise Set
Actual Time 6:57 AM EDT 7:27 PM EDT
Civil Twilight 6:30 AM EDT 7:54 PM EDT
Nautical Twilight 5:59 AM EDT 8:25 PM EDT
Astronomical Twilight 5:27 AM EDT 8:57 PM EDT
Moon 10:22 PM EDT (3/29) 8:07 AM EDT (3/29)
Length of Visible Light 13h 23m
Length of Day
12h 30m
Waning Gibbous, 93% of the Moon is Illuminated
Mar 29
Waning Gibbous
Apr 3
Last Quarter
Apr 10
New
Apr 18
First Quarter
Apr 25
Full

Hourly Weather History & Observations

Time (EDT) Temp. Windchill Dew Point Humidity Pressure Visibility Wind Dir Wind Speed Gust Speed Precip Events Conditions
12:15 AM 39.7 °F 37.6 °F 26.6 °F 59% 30.24 in 10.0 mi West 3.5 mph - N/A   Clear
12:35 AM 37.2 °F 33.6 °F 26.8 °F 66% 30.24 in 10.0 mi West 4.6 mph - N/A   Scattered Clouds
12:55 AM 38.7 °F 35.2 °F 27.0 °F 63% 30.24 in 10.0 mi West 4.6 mph - N/A   Clear
1:15 AM 39.6 °F 35.4 °F 27.1 °F 61% 30.25 in 10.0 mi West 5.8 mph - N/A   Clear
1:35 AM 39.2 °F 35.0 °F 27.3 °F 62% 30.25 in 10.0 mi West 5.8 mph - N/A   Clear
1:55 AM 38.8 °F 36.5 °F 27.1 °F 63% 30.25 in 10.0 mi West 3.5 mph - N/A   Scattered Clouds
2:15 AM 38.1 °F 34.6 °F 27.3 °F 65% 30.25 in 10.0 mi West 4.6 mph - N/A   Clear
2:35 AM 38.8 °F 35.4 °F 27.3 °F 63% 30.25 in 10.0 mi West 4.6 mph - N/A   Scattered Clouds
2:55 AM 39.2 °F 35.9 °F 27.5 °F 63% 30.25 in 10.0 mi West 4.6 mph - N/A   Mostly Cloudy
3:15 AM 39.0 °F 34.8 °F 27.7 °F 64% 30.25 in 10.0 mi West 5.8 mph - N/A   Overcast
3:35 AM 38.7 °F 36.3 °F 27.7 °F 65% 30.24 in 10.0 mi West 3.5 mph - N/A   Overcast
3:55 AM 37.4 °F 33.8 °F 27.5 °F 67% 30.24 in 10.0 mi WSW 4.6 mph - N/A   Overcast
4:15 AM 38.1 °F 35.7 °F 27.3 °F 65% 30.24 in 10.0 mi West 3.5 mph - N/A   Overcast
4:35 AM 37.8 °F 35.3 °F 27.0 °F 65% 30.24 in 10.0 mi West 3.5 mph - N/A   Overcast
4:55 AM 37.6 °F - 27.0 °F 66% 30.24 in 10.0 mi Calm Calm - N/A   Overcast
5:15 AM 36.7 °F - 27.5 °F 69% 30.24 in 10.0 mi Calm Calm - N/A   Overcast
5:35 AM 37.2 °F 34.7 °F 27.5 °F 68% 30.24 in 10.0 mi West 3.5 mph - N/A   Overcast
5:55 AM 38.3 °F 35.9 °F 27.1 °F 64% 30.25 in 10.0 mi West 3.5 mph - N/A   Overcast
6:15 AM 38.3 °F 35.9 °F 27.5 °F 65% 30.25 in 10.0 mi West 3.5 mph - N/A   Overcast
6:35 AM 37.4 °F 34.9 °F 28.2 °F 69% 30.26 in 10.0 mi West 3.5 mph - N/A   Overcast
6:55 AM 38.3 °F 35.9 °F 27.7 °F 66% 30.26 in 10.0 mi West 3.5 mph - N/A   Overcast
7:15 AM 38.7 °F 36.3 °F 27.5 °F 64% 30.26 in 10.0 mi West 3.5 mph - N/A   Overcast
7:35 AM 39.4 °F 37.2 °F 28.0 °F 64% 30.27 in 10.0 mi West 3.5 mph - N/A   Overcast
7:55 AM 39.7 °F - 28.0 °F 63% 30.28 in 10.0 mi Calm Calm - N/A   Overcast
8:15 AM 41.0 °F 38.0 °F 28.6 °F 61% 30.28 in 10.0 mi West 4.6 mph - N/A   Overcast
8:35 AM 41.4 °F 38.4 °F 28.9 °F 61% 30.28 in 10.0 mi West 4.6 mph - N/A   Overcast
8:55 AM 42.4 °F 39.6 °F 29.3 °F 60% 30.28 in 10.0 mi West 4.6 mph - N/A   Overcast
9:15 AM 45.1 °F 42.8 °F 29.7 °F 55% 30.28 in 10.0 mi West 4.6 mph - N/A   Scattered Clouds
9:35 AM 46.9 °F - 28.6 °F 49% 30.27 in 10.0 mi West 6.9 mph - N/A   Scattered Clouds
9:55 AM 48.2 °F - 29.5 °F 48% 30.26 in 10.0 mi West 5.8 mph - N/A   Mostly Cloudy
10:15 AM 49.5 °F - 28.9 °F 45% 30.27 in 10.0 mi NW 11.5 mph - N/A   Scattered Clouds
10:35 AM 50.0 °F - 28.4 °F 43% 30.26 in 10.0 mi NW 8.1 mph 17.3 mph N/A   Scattered Clouds
10:55 AM 51.1 °F - 28.4 °F 42% 30.26 in 10.0 mi West 5.8 mph - N/A   Scattered Clouds
11:15 AM 50.7 °F - 28.4 °F 42% 30.26 in 10.0 mi West 5.8 mph - N/A   Scattered Clouds
11:35 AM 50.9 °F - 27.0 °F 40% 30.25 in 10.0 mi NW 8.1 mph - N/A   Mostly Cloudy
11:55 AM 52.3 °F - 26.8 °F 37% 30.24 in 10.0 mi NNW 10.4 mph - N/A   Mostly Cloudy
12:15 PM 53.4 °F - 25.2 °F 33% 30.24 in 10.0 mi WNW 5.8 mph 18.4 mph N/A   Scattered Clouds
12:55 PM 55.2 °F - 25.2 °F 31% 30.22 in 10.0 mi NNW 9.2 mph - N/A   Scattered Clouds
1:15 PM 53.4 °F - 23.5 °F 31% 30.21 in 10.0 mi NNW 10.4 mph - N/A   Mostly Cloudy
1:35 PM 53.8 °F - 24.4 °F 32% 30.21 in 10.0 mi WNW 11.5 mph 16.1 mph N/A   Overcast
1:55 PM 53.6 °F - 23.7 °F 31% 30.20 in 10.0 mi WNW 8.1 mph 16.1 mph N/A   Overcast
2:15 PM 53.4 °F - 24.6 °F 33% 30.20 in 10.0 mi NW 6.9 mph - N/A   Overcast
2:35 PM 53.8 °F - 25.3 °F 33% 30.20 in 10.0 mi West 9.2 mph 16.1 mph N/A   Overcast
2:55 PM 54.7 °F - 25.5 °F 32% 30.19 in 10.0 mi NNW 9.2 mph - N/A   Overcast
3:15 PM 54.0 °F - 25.3 °F 33% 30.18 in 10.0 mi WNW 8.1 mph - N/A   Overcast
3:35 PM 54.5 °F - 25.7 °F 33% 30.18 in 10.0 mi West 8.1 mph - N/A   Overcast
3:55 PM 54.7 °F - 25.3 °F 32% 30.17 in 10.0 mi West 4.6 mph - N/A   Overcast
4:15 PM 56.3 °F - 25.5 °F 31% 30.17 in 10.0 mi West 5.8 mph 17.3 mph N/A   Overcast
4:35 PM 56.8 °F - 25.2 °F 30% 30.17 in 10.0 mi NW 5.8 mph - N/A   Overcast
4:55 PM 55.9 °F - 25.3 °F 31% 30.16 in 10.0 mi North 9.2 mph - N/A   Overcast
5:15 PM 55.0 °F - 25.0 °F 31% 30.16 in 10.0 mi Calm Calm - N/A   Overcast
5:35 PM 55.2 °F - 24.8 °F 31% 30.16 in 10.0 mi West 5.8 mph - N/A   Mostly Cloudy
5:55 PM 55.4 °F - 24.6 °F 30% 30.16 in 10.0 mi West 8.1 mph - N/A   Mostly Cloudy
6:15 PM 54.0 °F - 24.1 °F 31% 30.16 in 10.0 mi Calm Calm - N/A   Mostly Cloudy
6:35 PM 54.7 °F - 25.0 °F 32% 30.17 in 10.0 mi West 3.5 mph - N/A   Scattered Clouds
6:55 PM 54.0 °F - 25.0 °F 33% 30.17 in 10.0 mi Calm Calm - N/A   Mostly Cloudy
7:15 PM 52.2 °F - 26.8 °F 37% 30.17 in 10.0 mi Calm Calm - N/A   Mostly Cloudy
7:35 PM 49.8 °F - 28.8 °F 44% 30.18 in 10.0 mi Calm Calm - N/A   Mostly Cloudy
7:55 PM 46.9 °F - 28.0 °F 48% 30.18 in 10.0 mi Calm Calm - N/A   Scattered Clouds
8:15 PM 44.1 °F - 29.5 °F 57% 30.18 in 10.0 mi Calm Calm - N/A   Clear
8:35 PM 42.3 °F - 30.7 °F 64% 30.19 in 10.0 mi Calm Calm - N/A   Clear
8:55 PM 39.9 °F - 30.2 °F 68% 30.20 in 10.0 mi Calm Calm - N/A   Clear
9:15 PM 38.7 °F - 30.7 °F 73% 30.20 in 10.0 mi Calm Calm - N/A   Scattered Clouds
9:35 PM 40.3 °F - 31.6 °F 71% 30.21 in 10.0 mi Calm Calm - N/A   Scattered Clouds
9:55 PM 38.5 °F - 31.8 °F 77% 30.21 in 10.0 mi Calm Calm - N/A   Overcast
10:15 PM 38.8 °F - 31.8 °F 76% 30.21 in 10.0 mi Calm Calm - N/A   Overcast
10:35 PM 37.6 °F - 31.3 °F 78% 30.21 in 10.0 mi Calm Calm - N/A   Overcast
10:55 PM 37.6 °F - 32.0 °F 80% 30.21 in 10.0 mi Calm Calm - N/A   Overcast
11:15 PM 37.9 °F - 31.1 °F 76% 30.21 in 10.0 mi Calm Calm - N/A   Overcast
11:35 PM 36.9 °F - 30.9 °F 79% 30.21 in 10.0 mi Calm Calm - N/A   Overcast
11:55 PM 36.3 °F - 31.1 °F 81% 30.21 in 10.0 mi Calm Calm - N/A   Scattered Clouds